User: anonymous   Login
Location: Ocean City
(38.3360°N, 75.0850°W)
Time: 17:44:48
(UTC-04:00)
Language:

ISS - Orbit

View from above orbital plane
View from above orbital plane
View from above satellite
View from above satellite

Ground track
Ground track

The orbit data is extracted from the following two-line orbital elements,

1 25544U 98067A   19140.53392331  .00016717  00000-0  10270-3 0  9034
2 25544  51.6365 138.5790 0001820   8.5357 351.5826 15.52698792 10959
Epoch (UTC): 20 May 2019 12:48:50
Eccentricity: 0.0001820
inclination: 51.6365°
perigee height: 407 km
apogee height: 410 km
right ascension of ascending node: 138.5790°
argument of perigee: 8.5357°
revolutions per day: 15.52698792
mean anomaly at epoch: 351.5826°
orbit number at epoch: 1095

The dashed part of the orbit path shows where the satellite is in the earth's shadow,  

DLR